OBJECT AV, 57217

Orbit data source: Space-Track

You're viewing an Uncataloged Satellite

Recently launched and/or uncataloged satellites may have evolving metadata. Metadata may include but not limited to: Owner, Maufacturer, Bus, Motor, and Mission.

OBJECT AV, 57217 is a satellite in SSO that was launched on Tue, 27 Jun 2023 UTC via a SOYUZ-2-1B launch vehicle from the Vostochny Cosmodrome (VOSTO). Unknown objects in Earth's orbit typically refer to objects detected orbiting the Earth but have not yet been identified or cataloged. These objects could be anything from previously untracked satellites, spent rocket stages, debris from satellite collisions, or even natural meteoroids temporarily captured by Earth's gravity.

Loading next visibility...
Identifier
57217, 2023-091AV
Orbit
SSO
Country
Flag of TBDTBD
Related business
Flag of RUKuzbass State Technical University (KuzGTU) (RU)
Manufacturer
Sputniks
Mission
Operational Amateur Technology
Bus & Motor
CUBESAT 3U, Unknown motor
Mass
3.4 kg wet, 3.4 kg dry
Launch date (UTC)
2023-06-27 (3 years ago)
Launch vehicle
SOYUZ-2-1B
Launch site
Vostochny Cosmodrome (VOSTO)
Object type
Unknown
Shape & HBR
Box, 0.2 m
Radar Cross Section
0.035 m², Medium (>0.1 m² and < 1m²)

Expand to show TLE details & history
Last TLE update: 10 hours ago

TLE from 10 hours ago
0 OBJECT AV
1 57217U 23091AV  26208.18289574  .00012497  00000-0  42302-3 0  9996
2 57217  97.5047 273.0884 0009010 320.0283  40.0293 15.30702677170493
Epoch: 2026-07-27T04:23Z
TLE epoch observation values (Epoch: 2026-07-27T04:23:22.191Z)
Latitude
-0.0001°
Longitude
-97.62418°
Altitude
472.091 km
Speed
7.633 km/s
True Right ascension
18h 12m 21s
True Declination
0° 00' 00"
Sunlit
Object was in full shadow at epoch
Visualization orbit readout
Latitude
Unknown
Longitude
Unknown
Altitude
Unknown
Speed
Unknown
Apparent Right ascension
Unknown
Apparent Declination
Unknown
Sunlit
N/A
Visualization observer readout
Local Sidereal Time
03:40:30
Azimuth
Unknown
Elevation
Unknown
Doppler factor
Unknown
Orbital elements
Apogee altitude
476.841 km
Perigee altitude
464.5 km
Semi-major axis
6,848.807 km
Eccentricity
0.0009
Inclination
97.5047°
RAAN
273.0884°
Arg. of periapsis
320.0283°
True anomaly
40.09576°
Mean anomaly
40.0293°
Eccentric anomaly
40.06253°
Mean motion
3.82931 °/min
Orbital period
94.01 mins
BSTAR
0.00042302
Loading maneuver chart data...
Computing Atmospheric mass density...
Loading historical data...
Loading historical data...
Loading historical data...
Loading historical data...
Loading historical data...
Loading historical data...
Loading historical data...

Documentation

Showing up to 5 results
|